Location: Unspecified
(0.0000°N, 0.0000°E)
Time: 04:53:49
(UTC+00:00)

DMSP 5D-2 F13 DEB - Pass Details

Date: 17 February 2026
Orbit: 782 x 824 km, 98.9° (Epoch: 8 March)

Event Time Altitude Azimuth Distance (km) Brightness Sun altitude
Rises 18:54:11 0° 156° (SSE) 3,277 ? -9.8°
Reaches altitude 10° 18:56:36 10° 151° (SSE) 2,342 ? -10.4°
Maximum altitude 19:01:32 47° 77° (ENE) 1,025 ? -11.6°
Drops below altitude 10° 19:06:27 10° 4° (N) 2,327 ? -12.8°
Sets 19:08:49 0° 358° (N) 3,253 ? -13.4°
